Regional Weather Roundup
Issued by NWS

Home | Current Version | Previous Version | Text Only | Print | Product List | Glossary Off
Versions: 1 2 3 4 5 6 7 8 9 10 11 12 13 14 15 16 17 18 19 20 21 22 23 24 25 26 27 28 29 30 31 32 33 34 35 36 37 38 39 40 41 42 43 44 45 46 47 48 49 50

000
ASUS43 KMKX 290911
RWRWI

WISCONSIN REGIONAL WEATHER ROUNDUP
NATIONAL WEATHER SERVICE MILWAUKEE/SULLIVAN WI
400 AM CDT WED JUL 29 2015

NOTE: "FAIR" INDICATES FEW OR NO CLOUDS BELOW 12,000 FEET WITH NO
SIGNIFICANT WEATHER AND/OR OBSTRUCTIONS TO VISIBILITY.

WIZ001-002-006>008-014>016-023>028-291000-
NORTHWEST WISCONSIN

CITY           SKY/WX    TMP DP  RH WIND       PRES   REMARKS
SUPERIOR ARPT  CLEAR     65  53  63 SW14G21   29.73F
ASHLAND        CLEAR     66  55  67 SW13G21   29.78F
HAYWARD        CLEAR     67  51  56 SW8       29.85F
SIREN          CLEAR     66  53  63 SW9       29.84F
CUMBERLAND     CLEAR     61  54  77 SW7       29.89S
RICE LAKE      CLEAR     64  55  70 SW7       29.90S
CHETEK         CLEAR     66  56  68 SW6       29.90S
LADYSMITH      PTCLDY    65  57  74 SW5       29.91R
EAU CLAIRE     PTCLDY    65  59  81 SW7       29.90S
MENOMONIE      CLEAR     65  59  79 SW6       29.91S
NEW RICHMOND   CLEAR     64  56  76 SW9       29.91S
OSCEOLA        CLEAR     66  55  67 SW10      29.92S
$$

WIZ003>005-009-010-017-018-291000-
NORTH CENTRAL WISCONSIN

CITY           SKY/WX    TMP DP  RH WIND       PRES   REMARKS
MANITOWISH WTR MOCLDY    66  55  67 SW10      29.86S
ARBOR VITAE    MOCLDY    72  58  60 W12G18    29.88R
WOODRUFF       MOCLDY    72  58  60 W12G18    29.88R
RHINELANDER    CLOUDY    69  57  65 W12       29.89R
EAGLE RIVER    CLOUDY    68  57  67 W8        29.86S
LAND O LAKES   CLOUDY    69  58  69 W7        29.86S
PHILLIPS       CLEAR     66  56  71 SW8       29.88S
TOMAHAWK       CLOUDY    69  56  65 W6        29.90S
MEDFORD        MOCLDY    66  57  72 W7        29.91S
MERRILL        NOT AVBL
$$

WIZ029-030-035-036-043>047-291000-
CENTRAL WISCONSIN

CITY           SKY/WX    TMP DP  RH WIND       PRES   REMARKS
WAUSAU         CLOUDY    73  56  54 W10       29.89R
MOSINEE        CLOUDY    72  55  56 W6        29.92R
MARSHFIELD     CLOUDY    70  57  63 W8        29.92R
STEVENS POINT  CLOUDY    73  61  65 W8G17     29.91R
WAUPACA        CLOUDY    76  73  89 SW8       29.89S
WAUTOMA        CLOUDY    76  72  87 W9        29.90S
WISC RAPIDS    CLOUDY    75  58  55 NW8       29.93R
CAMP DOUGLAS   NOT AVBL
$$

WIZ011>013-019>022-031-037>040-048>050-291000-
NORTHEAST WISCONSIN

CITY           SKY/WX    TMP DP  RH WIND       PRES   REMARKS
ANTIGO         CLOUDY    71  58  63 W13       29.90R
SHAWANO        CLOUDY    76  70  81 SW5       29.86S
OCONTO         CLOUDY    72  72 100 SW5       29.84S
STURGEON BAY   CLOUDY    72  66  83 S8        29.88R
GREEN BAY      CLOUDY    73  70  90 S5        29.86S FOG
MANITOWOC      MOCLDY    73  70  90 MISG      29.89R
APPLETON       CLOUDY    73  70  88 SW10      29.89S
CLINTONVILLE   CLOUDY    73  68  83 SW7       29.86S
OSHKOSH        CLOUDY    76  70  82 SW6       29.88S
$$

WIZ032>034-041-042-053>061-291000-
SOUTHWEST WISCONSIN

CITY           SKY/WX    TMP DP  RH WIND       PRES   REMARKS
LA CROSSE      CLOUDY    71  61  70 NW6       29.94R
SPARTA         CLOUDY    72  63  72 SW3       29.94S
VIROQUA        CLOUDY    70  63  79 NW5       29.97S
BOSCOBEL       CLOUDY    75  71  87 CALM      29.94R
PRAIRIE DU CHI CLOUDY    74  66  74 W6        29.96R
PLATTEVILLE    CLOUDY    72  71  98 W8        29.97R
$$

WIZ056-057-062-063-064-067-068-291000-
SOUTH CENTRAL WISCONSIN

CITY           SKY/WX    TMP DP  RH WIND       PRES   REMARKS
REEDSBURG      CLOUDY    74  71  90 W6        29.93R
BARABOO/DELLS  CLOUDY    74  68  82 W7        29.93R
LONE ROCK      CLOUDY    74  71  91 W3        29.94R
MINERAL POINT  HVY RAIN  73  72  94 W7        29.96R
MADISON        TSTM      76  71  85 VRB7      29.92R
MIDDLETON      CLOUDY    75  73  91 W7        29.93S
WATERTOWN      CLOUDY    74  74 100 SW3       29.91S
MONROE         CLOUDY    73  72  94 W9        29.94S
JANESVILLE     CLOUDY    73  72  94 CALM      29.93R
$$

WIZ051-052-058>065-066-070>072-291000-
SOUTHEAST WISCONSIN

CITY           SKY/WX    TMP DP  RH WIND       PRES   REMARKS
MILWAUKEE      MOCLDY    76  71  85 SW7       29.90S
WAUKESHA       MOCLDY    72  70  94 SW3       29.93S
MILWAUKEE/TIMM CLOUDY    73  68  83 SW3       29.91S
RACINE         CLOUDY    77  71  82 SW5       29.92S
BURLINGTON     CLOUDY    71  70  97 SW3       29.93R
KENOSHA        CLOUDY    76  73  91 SW7       29.92S
FOND DU LAC    CLOUDY    76  72  87 SW5       29.89S
SHEBOYGAN      CLOUDY    72  70  93 SW7       29.90R FOG
WEST BEND      CLOUDY    72  70  94 CALM      29.91S
JUNEAU         CLOUDY    73  72  96 SW5       29.92F
$$

LSZ147-162-291000-
LAKE SUPERIOR

STATION/POSITION TIME  TEMP    WIND        PRES    WAVE
                       AIR SEA DIR/SP/G            HT/PER
                 (UTC) (F)     (DEG/KT/KT) (MB)    (FT/S)
W MID LAKE BUOY  0850   67 62  210/ 16/ 17 1005.8F   2/ 4
DEVILS ISLAND    0900   71     220/ 23/ 31 1006.0F
PORT WING        0800   71     200/ 10/ 18 1007.8
SAXON HARBOR     0800   73                 1008.5F
$$

LMZ867-665-643>646-291000-
LAKE MICHIGAN

STATION/POSITION TIME  TEMP    WIND        PRES    WAVE
                       AIR SEA DIR/SP/G            HT/PER
                 (UTC) (F)     (DEG/KT/KT) (MB)    (FT/S)
CHAMBERS ISLAND  0800   74     170/  3/  7 1010.2F
S GREEN BAY BUOY 0900   76 75  200/ 14/ 17 1012.3R
N MID LAKE BUOY  0850   73 70  180/ 14/ 16 1009.8F   1/ 3
NORTHPORT PIER   0800   71     150/  5/  7 1010.2F
SISTER BAY       0844   71     170/ 10/ 11   N/A
KEWAUNEE LAKESHO 0800   63     160/  3/  4 1010.7F
SHEBOYGAN LAKESH 0900   72     240/  5/  7 1012.2R
PORT WASHINGTON  0840   75     260/  4/  6 1012.9R
ATWATER BUOY     0900   74     220/  4/  4 1013.7R
MILWAUKEE LAKESH 0800   76     220/  6/  7   N/A
KENOSHA   LAKESH 0900   79     230/  5/  8 1012.5S
$$

TC  - TEMPERATURE IN CELSIUS
VSB - VISIBILITY IN STATUTE MILES
WCI - WIND CHILL INDEX
HX  - HEAT INDEX



USA.gov is the U.S. government's official web portal to all federal, state and local government web resources and services.